www.pogodaiklimat.ru

Погода и климат >> Архив погоды >> Испания >> Витория-Гастейс


ПОГОДА в Витория-Гастейсе

  • Прогноз погоды в Витория-Гастейсе
  • Монитор погоды в Витория-Гастейсе

АРХИВ ПОГОДЫ в Витория-Гастейсе

Время (UTC), дата Ветер
(напр.,м/с)
 
Видим.   Явления Облачность Т
(С)
Тd
(С)
f
(%)
Тe
(С)
Тes
(С)
Комфортность P
(гПа)
Po
(гПа)
Тmin
(С)
Tmax
(С)
R
(мм)
R24
(мм)
S
(см)
19 16.09 С 3 н/о н/о +21.0 +17.0 78 +25 +25 комфорт 1018.4 960.6
20 16.09 ЮЗ 1 н/о н/о +19.3 +16.9 86 +22 +22 комфорт 1019.2 961.0
21 16.09 В 2 15 км 6/4 1000 м
[Sc Ac As]
+18.2 +17.1 93 +19 +19 1019.7 961.3
22 16.09 СВ 2 н/о н/о +17.6 +17.0 96 +18 +18 1019.8 961.3
23 16.09 СВ 1 н/о н/о +17.0 +16.6 97 +18 +18 1019.8 961.1
00 17.09 штиль 0 9000 м 6/1 1000 м
[Sc Ac As]
+16.1 +15.8 98 +16 +16 1019.5 960.7 0.0
01 17.09 СВ 1 н/о н/о +15.6 +15.6 100 +16 +16 1019.5 960.6
02 17.09 СЗ 1 н/о н/о +15.8 +15.8 100 +16 +16 1019.1 960.2
03 17.09 СЗ 1 8000 м 8/4 1000 м
[Sc Ac As]
+16.3 +16.3 100 +17 +17 1018.6 959.9
04 17.09 Ю 1 н/о н/о +15.6 +15.6 100 +16 +16 1018.6 959.7
05 17.09 СЗ 1 н/о н/о +16.1 +16.1 100 +17 +17 1018.6 959.8
06 17.09 штиль 0 7000 м дымка 9/3 1000 м
[Sc Ac As]
+15.6 +15.6 100 +15 +15 1018.9 960.0 +15.1
07 17.09 штиль 0 7000 м дымка 9/3 1000 м
[Sc Ac As]
+16.7 +16.7 100 +17 +17 1018.9 960.2
08 17.09 штиль 0 н/о н/о +17.8 +17.3 97 +18 +18 1018.9 960.5
09 17.09 В 1 10 км 9/0
[Ac As Cs]
+20.2 +18.0 87 +25 +29 комфорт 1018.3 960.4
10 17.09 Ю 1 н/о н/о +22.9 +18.0 74 +28 +28 душно 1017.7 960.3
11 17.09 В 1 н/о н/о +25.2 +19.0 69 +30 +30 душно 1016.5 959.7
12 17.09 С 1 20 км 8/4 1000 м
[Cu med, cong Ac As Ci]
+26.7 +17.0 55 +30 +36 душно 1015.7 959.1
13 17.09 ЮЗ 1 20 км 8/4 1000 м
[Cu med, cong Ac As Ci]
+27.3 +18.1 57 +32 +37 очень
душно
1014.9 958.5
14 17.09 СВ 4 н/о н/о +28.0 +17.7 54 +32 +32 душно 1014.1 957.9
15 17.09 С 5 20 км 8/3 1000 м
[Cu med, cong Ac trans Cs]
+26.9 +19.2 63 +32 +34 очень
душно
1014.0 957.6
16 17.09 С 6 н/о н/о +26.1 +19.5 67 +32 +32 очень
душно
1013.8 957.3
17 17.09 СВ 4 н/о н/о +24.0 +19.5 76 +29 +29 душно 1014.4 957.5
18 17.09 С 5 20 км 8/3 600 м
[Cu med, cong Ac cuf Ci ing]
+22.5 +18.2 77 +28 +28 душно 1014.1 956.9 +28.5
19 17.09 С 3 н/о н/о +21.1 +17.9 82 +25 +25 комфорт 1015.4 957.8
20 17.09 Ю 2 н/о н/о +19.3 +17.3 88 +22 +22 комфорт 1015.9 957.9
21 17.09 С 2 15 км 5/1 600 м
[Sc diur, vesp Ac cuf Cs]
+17.7 +16.6 93 +18 +18 1016.5 958.2
22 17.09 штиль 0 н/о н/о +17.2 +15.9 92 +17 +17 1017.0 958.5
23 17.09 В 2 н/о н/о +16.2 +15.7 97 +16 +16 1017.1 958.4
00 18.09 В 1 10 км зарница 8/1 600 м
[Cu med, cong Ac trans Cs]
+15.8 +15.6 99 +16 +16 1016.8 958.1
01 18.09 ЮЗ 3 н/о н/о +16.3 +16.1 99 +16 +16 1017.8 959.1
02 18.09 ЮЗ 5 н/о н/о +17.5 +15.0 85 +17 +17 1016.8 958.4
03 18.09 С 1 15 км 5/3 600 м
[Sc Cs]
+16.1 +14.5 90 +17 +17 1016.3 957.6
04 18.09 СВ 2 н/о н/о +15.0 +14.2 95 +15 +15 1016.3 957.4
05 18.09 С 3 н/о н/о +15.2 +14.6 96 +14 +14 1016.5 957.6
06 18.09 Ю 1 15 км 9/3 1000 м
[Cu med, cong Ac As Cs]
+14.7 +14.4 98 +15 +15 1016.8 957.8 +14.4
07 18.09 СВ 2 10 км гроза без осадков 9/3 1050 м
[Cb cap Ac cast Ci sp]
+15.0 +14.7 98 +15 +15 1017.2 958.3
08 18.09 В 1 н/о осадки н/о +15.2 +15.0 99 +16 +16 1018.3 959.3
09 18.09 С 1 7000 м слаб. дождь {гроза} 9/8 300 м
[Sc Ac As]
+16.0 +15.9 99 +17 +17 1018.6 959.8 2
10 18.09 ЮЗ 1 н/о в посл. час осадки н/о +17.7 +16.7 94 +19 +19 1017.8 959.4
12 18.09 В 1 15 км {гроза, дождь} 10/4 300 м
[Sc Ac As]
+20.1 +16.9 82 +24 +27 комфорт 1017.5 959.6 0.0
13 18.09 СВ 1 15 км {дождь} 10/3 600 м
[Cu med, cong Ac As]
+20.4 +16.9 80 +25 +27 комфорт 1017.5 959.6
14 18.09 С 2 н/о н/о +21.1 +17.3 79 +25 +25 комфорт 1016.9 959.2
15 18.09 СЗ 4 12 км 6/4 600 м
[Frnb Ac As]
+21.0 +17.9 82 +25 +28 комфорт 1016.4 958.7
16 18.09 СЗ 3 н/о н/о +21.6 +17.7 78 +26 +26 душно 1016.1 958.6
17 18.09 СВ 4 н/о н/о +20.1 +17.5 85 +23 +23 комфорт 1017.1 959.2
18 18.09 С 3 9000 м 6/4 600 м
[Cu Sc Ac As Ci fib]
+18.9 +16.8 88 +20 +20 1017.6 959.4 +22.5
19 18.09 С 2 н/о н/о +17.4 +15.9 91 +18 +18 1018.3 959.8
20 18.09 С 3 н/о н/о +16.6 +16.1 97 +16 +16 1019.0 960.3
21 18.09 С 2 7000 м дымка 3/3 300 м
[Cu Sc]
+15.5 +15.2 98 +15 +15 1019.6 960.6
22 18.09 штиль 0 н/о н/о +14.0 +13.5 97 +14 +14 1020.1 960.8
23 18.09 С 1 н/о н/о +13.4 +13.4 100 +13 +13 1020.3 960.8
00 19.09 В 1 5000 м дымка 3/3 300 м
[Cu Sc]
+14.2 +14.2 100 +15 +15 1020.0 960.7
01 19.09 штиль 0 н/о н/о +14.2 +14.2 100 +14 +14 1019.9 960.6
02 19.09 СВ 1 н/о н/о +13.1 +13.1 100 +14 +14 1019.7 960.2
03 19.09 СВ 1 6000 м дымка 4/4 300 м
[Cu Sc]
+11.5 +11.5 100 +11 +11 1019.8 959.9
04 19.09 СВ 1 н/о н/о +11.3 +11.3 100 +11 +11 1019.7 959.8
05 19.09 штиль 0 н/о н/о +10.9 +10.9 100 +10 +10 1019.9 959.9
06 19.09 В 1 3000 м дымка 10/10 100 м
[St]
+12.2 +12.2 100 +13 +13 1019.9 960.2 +10.8
07 19.09 ЮВ 1 3000 м дымка 9/9 100 м
[St]
+13.2 +13.2 100 +13 +13 1019.9 960.4
08 19.09 З 1 н/о н/о +14.8 +14.8 100 +15 +15 1019.9 960.8
09 19.09 С 1 10 км 6/6 300 м
[St]
+16.9 +14.2 84 +18 +20 1019.7 961.0
10 19.09 С 2 н/о н/о +19.0 +15.0 78 +21 +21 комфорт 1019.1 960.8
11 19.09 В 1 н/о н/о +20.7 +15.5 72 +25 +25 комфорт 1018.3 960.4
12 19.09 ЮЗ 1 20 км 1/1 600 м
[Cu med, cong]
+22.7 +16.1 66 +27 +39 душно 1017.2 959.8
13 19.09 В 2 25 км 3/3 600 м
[Cu med, cong]
+24.3 +16.4 61 +28 +36 душно 1016.1 959.0
14 19.09 СВ 2 н/о н/о +25.4 +16.6 58 +29 +29 душно 1015.2 958.4
15 19.09 СВ 3 25 км 4/4 1000 м
[Cu med, cong]
+25.8 +17.4 60 +30 +33 душно 1014.6 957.9
16 19.09 СВ 5 н/о н/о +24.8 +17.3 63 +29 +29 душно 1014.4 957.6
17 19.09 СВ 6 н/о н/о +23.0 +17.4 71 +28 +28 душно 1014.9 957.7
18 19.09 С 4 20 км 5/3 1000 м
[Cu hum Ac cuf]
+20.8 +16.8 78 +25 +25 комфорт 1015.8 958.1 +26.2
19 19.09 С 4 н/о н/о +18.8 +16.2 85 +20 +20 1016.6 958.5
20 19.09 С 2 н/о н/о +18.0 +16.1 89 +19 +19 1017.4 959.1
21 19.09 Ю 1 10 км 9/1 1000 м
[Sc diur, vesp Ac As]
+17.2 +15.9 92 +18 +18 1018.0 959.5
22 19.09 В 1 н/о н/о +15.9 +15.0 94 +17 +17 1017.9 959.1
23 19.09 СВ 1 н/о н/о +15.2 +15.1 99 +16 +16 1017.5 958.6
00 20.09 С 1 8000 м 1/0 2000 м
[Ac cuf]
+14.2 +14.2 100 +14 +14 1017.5 958.4
01 20.09 В 1 н/о н/о +13.4 +13.4 100 +13 +13 1017.7 958.4
02 20.09 З 1 н/о н/о +13.2 +13.2 100 +13 +13 1017.5 958.1
03 20.09 Ю 1 5000 м дымка ?/? +12.3 +12.3 100 +12 +12 1017.2 957.7
04 20.09 СВ 2 н/о н/о +11.6 +11.6 100 +11 +11 1017.1 957.4
05 20.09 З 1 н/о н/о +11.6 +11.6 100 +12 +12 1016.9 957.2
06 20.09 штиль 0 5000 м 6/4 100 м
[St Ac As Ci fib]
+11.0 +11.0 100 +10 +10 1017.2 957.4 +11.0
07 20.09 СЗ 1 4000 м дымка 5/3 100 м
[St Ac As]
+12.5 +12.5 100 +13 +13 1017.3 957.8
08 20.09 штиль 0 н/о н/о +17.2 +16.9 98 +17 +17 1016.6 958.2
09 20.09 В 2 20 км 4/1 600 м
[Cu Sc Ac As]
+21.8 +16.5 72 +26 +30 душно 1015.7 958.2
10 20.09 В 4 н/о н/о +24.0 +16.5 63 +27 +27 жарко 1014.6 957.6
11 20.09 В 4 н/о н/о +25.6 +16.9 59 +29 +29 душно 1013.8 957.1
12 20.09 ЮВ 6 20 км 3/1 1000 м
[Cu Sc Ac cuf]
+27.0 +17.0 54 +31 +35 душно 1012.8 956.4
13 20.09 ЮВ 8 25 км 5/1 1000 м
[Cu hum Ac und Ci fib]
+27.3 +16.6 52 +31 +32 душно 1011.8 955.5
14 20.09 ЮВ 7 н/о н/о +25.6 +16.6 58 +29 +29 душно 1011.6 955.0
15 20.09 ЮВ 8 25 км 8/3 1200 м
[Cb calv Ac und]
+26.2 +15.9 53 +29 +30 жарко 1010.7 954.3
16 20.09 ЮВ 7 н/о н/о +25.6 +16.3 56 +29 +29 душно 1010.5 954.0
17 20.09 ЮВ 6 н/о н/о +24.7 +15.3 56 +28 +28 душно 1010.7 954.0
18 20.09 ЮВ 5 10 км гроза без осадков 9/4 1200 м
[Cb cap Ac cuf Ci ing]
+24.1 +15.9 60 +27 +27 жарко 1011.0 954.2 +28.1
19 20.09 Ю 5 н/о осадки н/о +22.0 +17.3 75 +26 +26 душно 1012.1 954.9
20 20.09 ЮЗ 6 н/о осадки н/о +17.3 +15.6 90 +16 +16 1015.3 956.9
21 20.09 С 1 15 км слаб. ливневой дождь {гроза} 10/3 600 м
[Cu med, cong Ac As]
+16.7 +16.1 96 +18 +18 1014.3 955.9 2
22 20.09 СВ 2 н/о осадки н/о +16.6 +16.0 96 +17 +17 1013.7 955.3
23 20.09 З 2 н/о в посл. час осадки н/о +15.9 +14.9 94 +16 +16 1013.3 954.8
00 21.09 ЮЗ 6 20 км {гроза, дождь} 9/8 600 м
[Cu Sc Ac trans]
+17.6 +15.4 87 +17 +17 1014.0 955.8 0.1
01 21.09 Ю 3 н/о осадки н/о +17.2 +15.5 90 +17 +17 1012.4 954.2
02 21.09 Ю 3 н/о в посл. час осадки н/о +15.7 +14.9 95 +15 +15 1012.7 954.2
03 21.09 В 3 20 км 6/4 600 м
[Cu Sc Ac trans Cs]
+16.4 +14.9 91 +16 +16 1011.9 953.5 0.0
04 21.09 З 1 н/о н/о +16.4 +14.6 89 +18 +18 1012.0 953.6
05 21.09 С 2 н/о н/о +15.1 +14.2 94 +15 +15 1012.0 953.4
06 21.09 СЗ 1 15 км 8/3 600 м
[Sc Ac trans Cs]
+15.6 +14.6 94 +16 +16 1012.0 953.5 +14.9
07 21.09 Ю 3 10 км 8/4 300 м
[Cu Sc Ac lent Ci fib]
+17.9 +15.5 86 +18 +18 1011.3 953.3
08 21.09 Ю 4 н/о н/о +19.5 +16.1 81 +22 +22 комфорт 1010.9 953.2
09 21.09 Ю 6 15 км 8/4 600 м
[Sc Ac lent Ci]
+21.3 +15.9 71 +25 +26 комфорт 1010.3 953.0
10 21.09 Ю 5 н/о н/о +21.9 +16.1 70 +26 +26 душно 1010.1 952.9
11 21.09 Ю 5 н/о н/о +23.9 +16.0 61 +27 +27 жарко 1009.4 952.6
12 21.09 Ю 6 30 км 8/4 1000 м
[Cu med, cong Ac trans Ci fib]
+24.2 +14.1 53 +27 +29 жарко 1008.9 952.2
13 21.09 Ю 6 25 км 9/4 1000 м
[Cu med, cong Ac As Ci sp]
+24.4 +14.4 54 +27 +28 жарко 1008.5 951.8
14 21.09 ЮЗ 7 н/о н/о +23.3 +14.6 58 +27 +27 душно 1008.2 951.4
15 21.09 ЮЗ 5 25 км 9/9 1000 м
[Cu Sc As trans]
+23.8 +15.0 58 +27 +27 жарко 1007.7 951.0
16 21.09 Ю 6 н/о н/о +23.9 +15.3 59 +27 +27 жарко 1007.3 950.6
17 21.09 ЮЗ 6 н/о н/о +22.2 +14.3 61 +25 +25 комфорт 1007.6 950.6
18 21.09 ЮЗ 5 20 км 9/9 600 м
[Cu Sc Ac As]
+21.3 +14.7 66 +24 +24 комфорт 1008.0 950.8 +24.9
19 21.09 ЮЗ 5 н/о н/о +20.4 +14.3 68 +23 +23 комфорт 1008.1 950.7
20 21.09 ЮЗ 2 н/о н/о +19.7 +14.5 72 +22 +22 комфорт 1008.4 950.9
21 21.09 ЮЗ 3 н/о н/о +19.3 +14.5 74 +21 +21 комфорт 1008.4 950.8
22 21.09 ЮЗ 3 н/о н/о +19.8 +14.7 72 +22 +22 комфорт 1008.3 950.8
23 21.09 Ю 3 н/о н/о +19.2 +14.8 76 +21 +21 комфорт 1008.2 950.6
00 22.09 Ю 2 15 км 9/9 600 м
[Cu Sc Ac As]
+19.5 +14.6 73 +22 +22 комфорт 1008.3 950.7
01 22.09 Ю 2 н/о н/о +18.6 +15.5 82 +20 +20 1008.6 950.9
02 22.09 ЮВ 2 н/о н/о +18.7 +15.8 83 +20 +20 1008.4 950.7
03 22.09 штиль 0 10 км слаб. дождь 10/10 600 м
[Cu Sc Ac As]
+17.8 +16.5 92 +18 +18 1008.8 950.9 0.2
04 22.09 ЮЗ 3 н/о осадки н/о +16.8 +16.5 98 +17 +17 1009.4 951.3
05 22.09 Ю 3 н/о осадки н/о +15.5 +15.1 97 +15 +15 1010.3 951.9
06 22.09 ЮЗ 6 20 км 8/8 300 м
[Frnb]
+14.5 +13.4 93 +13 +13 1011.2 952.5 +14.5 6
07 22.09 ЮЗ 7 35 км 5/3 300 м
[Frnb Cs]
+14.5 +13.1 91 +12 +13 1012.3 953.5
08 22.09 ЮЗ 6 н/о н/о +15.5 +12.9 84 +14 +14 1013.0 954.4
09 22.09 ЮЗ 4 30 км 9/4 600 м
[Sc Ac As Cs]
+16.4 +12.5 78 +16 +17 1013.7 955.2
10 22.09 ЮЗ 6 н/о н/о +18.1 +12.6 70 +18 +18 1013.5 955.3
11 22.09 ЮЗ 8 н/о н/о +19.2 +12.4 65 +20 +20 1013.3 955.3
12 22.09 ЮЗ 7 30 км 8/4 1000 м
[Cu Sc Ac und Cs]
+20.6 +12.1 58 +22 +24 комфорт 1013.2 955.5
13 22.09 ЮЗ 7 30 км 9/4 1000 м
[Cu Sc Ac As Cs]
+20.7 +11.6 56 +22 +23 комфорт 1013.1 955.4
14 22.09 ЮЗ 5 н/о н/о +22.0 +9.4 45 +24 +24 комфорт 1013.1 955.6
15 22.09 ЮЗ 4 30 км 8/4 1000 м
[Cu Sc Ac As Ci fib]
+21.8 +9.4 45 +23 +25 комфорт 1012.8 955.3
16 22.09 З 3 н/о н/о +22.2 +8.5 41 +23 +23 комфорт 1013.0 955.6
17 22.09 С 5 н/о н/о +19.0 +13.6 71 +20 +20 1014.6 956.6
18 22.09 С 4 20 км 6/6 600 м
[Cu Sc]
+16.0 +12.9 82 +15 +15 1016.1 957.4 +23.1
19 22.09 С 2 н/о н/о +14.5 +12.4 87 +14 +14 1017.4 958.3
20 22.09 СЗ 2 н/о н/о +13.2 +12.2 94 +12 +12 1018.1 958.7
21 22.09 З 1 10 км 5/5 600 м
[Sc diur, vesp]
+12.0 +11.1 94 +13 +13 1019.1 959.4
22 22.09 штиль 0 н/о н/о +11.4 +11.0 97 +11 +11 1019.4 959.5
23 22.09 штиль 0 н/о н/о +10.1 +9.9 99 +9 +9 1019.7 959.5
00 23.09 С 2 10 км 3/3 600 м
[Sc diur, vesp]
+9.5 +9.5 100 +8 +8 1019.9 959.6
01 23.09 штиль 0 н/о н/о +9.3 +9.3 100 +8 +8 1020.0 959.6
02 23.09 штиль 0 н/о н/о +8.1 +8.1 100 +7 +7 1020.1 959.4
03 23.09 СВ 2 9000 м 3/3 600 м
[Sc]
+8.5 +8.5 100 +7 +7 1020.3 959.7
04 23.09 СВ 2 н/о н/о +9.1 +9.1 100 +7 +7 1020.3 959.9
05 23.09 С 1 н/о н/о +9.1 +9.1 100 +9 +9 1020.5 960.0
06 23.09 В 2 500 м туман 9/6 100 м
[St Ac As Ci fib]
+9.1 +9.1 100 +8 +8 1020.9 960.4 +8.0
07 23.09 СВ 1 4200 м дымка {туман} 9/4 100 м
[St Ac As]
+10.7 +10.7 100 +10 +10 1020.6 960.5
08 23.09 ЮВ 1 н/о н/о +13.3 +12.2 93 +13 +13 1020.2 960.7
09 23.09 ЮЗ 5 30 км 9/0
[Ac As]
+15.9 +11.3 74 +15 +16 1019.7 960.7
10 23.09 ЮЗ 5 н/о н/о +16.3 +11.8 75 +15 +15 1019.6 960.7
11 23.09 ЮЗ 5 н/о н/о +18.4 +11.8 65 +18 +18 1018.7 960.3
12 23.09 ЮЗ 6 30 км 10/0
[Ac As Cs]
+19.4 +11.0 58 +20 +22 1017.9 959.7
13 23.09 ЮЗ 5 30 км 10/0
[Ac As]
+20.5 +11.5 56 +22 +24 комфорт 1017.8 959.8
14 23.09 ЮЗ 5 н/о в посл. час осадки н/о +21.3 +11.3 53 +23 +23 комфорт 1017.4 959.6
15 23.09 ЮЗ 6 35 км 9/0
[Ac As]
+21.1 +11.8 55 +23 +24 комфорт 1016.9 959.1 0.0
16 23.09 ЮЗ 4 н/о н/о +21.1 +11.5 54 +23 +23 комфорт 1017.1 959.3
17 23.09 З 2 н/о н/о +20.9 +11.6 55 +24 +24 комфорт 1017.1 959.2
18 23.09 ЮЗ 3 30 км 9/0
[Ac As]
+19.3 +12.8 66 +21 +21 комфорт 1017.5 959.3 +21.5
19 23.09 З 2 н/о н/о +19.2 +12.2 64 +21 +21 комфорт 1017.5 959.3

 

Местоположение метеостанции Витория-Гастейс (Испания): широта 42.88 долгота -2.72 высота над уровнем моря 510 м.

В архиве по умолчанию представлена погода в Витория-Гастейсе за последнюю неделю. Архивные данные за месяц целиком и за предыдущие месяцы, начиная с января 2011 года, Вы можете получить, выбрав интересующий диапазон дат из раскрывающегося списка и нажав кнопку "Ввод!".


*Определитесь, кто Вы:
робот инопланетянин человек

Внимание! Время в таблицах - всемирное. Для получения местного времени необходимо прибавить поправку, которая равна 1 ч.

Смотрите также архив погоды в соседних городах и на ближайших метеорологических станциях:

Погода в Зумаррага - Урзабалета (Испания) (39 км)
Погода в Элгойбар - Ибердрола (Испания) (45 км)
Погода в Гуэньесе (Испания) (47 км)
Погода в Бильбао (Испания) (50 км)
Погода в Логроньо (Испания) (57 км)
Погода на Мысе Лекейтио (Испания) (58 км)
Погода на Мысе Зумая (Испания) (60 км)
Погода в Пунта Галеа (Испания) (61 км)
Погода в Медина-де-Помаре (Испания) (62 км)
Погода в Белорадо (Испания) (63 км)

Пояснения к столбцам:

Ветер - указаны скорость ветра в м/с - средняя за 10 мин, порывы в срок и между сроками (в фигурных скобках) и направление, откуда дует ветер: С - северный, СВ - северо-восточный, В - восточный, ЮВ - юго-восточный, Ю - южный, ЮЗ - юго-западный, З - западный, СЗ - северо-западный.
Видимость - горизонтальная дальность видимости в метрах или километрах. При видимости от 1 до 10 км при отсутствии осадков обычно наблюдается дымка, при ухудшении видимости до 1 км и менее - туман. В сухую погоду видимость может ухудшаться дымом, пылью или мглою.
Явления - указаны атмосферные явления, наблюдавшиеся в срок или в последний час перед сроком; фигурными скобками обозначены явления, наблюдавшиеся между сроками (за 1-3 часа до срока); квадратными скобками обозначены град или гололедные отложения с указанием их диаметра в мм.
Облачность - указаны через наклонную черту общая и нижняя облачность в баллах и высота нижней границы облаков в метрах; квадратными скобками обозначены формы облаков: Ci - перистые, Cs - перисто-слоистые, Cc - перисто-кучевые, Ac - высококучевые, As - высокослоистые, Sc - слоисто-кучевые, Ns - слоисто-дождевые, Cu - кучевые, Cb - кучево-дождевые. Подробнее классификацию облаков см. в Атласе облаков (PDF).
T - Температура воздуха - температура, измеренная на высоте 2 м над землей.
Td - Температура точки росы - температура, при понижении до которой содержащийся в воздухе водяной пар достигнет насыщения.
f - Относительная влажность воздуха - влажноcть воздуха, измеренная на высоте 2 м над землей.
Te - Эффективная температура - температура, которую ощущает одетый по сезону человек в тени. Характеристика душности погоды. При расчете учитывается влияние влажности воздуха и скорости ветра на теплоощущения человека.
Tes - Эффективная температура на солнце - температура, которую ощущает человек, с поправкой на солнечный нагрев. Характеристика знойности погоды. Зависит от высоты солнца над горизонтом, облачности и скорости ветра. Ночью, в пасмурную погоду, а также при ветре 12 м/с и более поправка равна нулю.
P - Атмосферное давление - приведенное к уровню моря атмосферное давление.
Po - Атмосферное давление - измеренное на уровне метеостанции атмосферное давление.
Tmin - Минимальная температура - минимум температуры воздуха на высоте 2 м над землей.
Tmax - Максимальная температура - максимум температуры воздуха на высоте 2 м над землей.
R - Количество осадков - Количество выпавших осадков за период времени, мм. При наведении курсора мыши на число - период времени, за который выпало указанное количество осадков.
R24 - Количество осадков - Количество выпавших осадков за 24 часа, мм.
S - Снежный покров - Высота снежного покрова, см. При наведении курсора мыши на число - состояние снежного покрова и степень покрытия местности в баллах.